Weather in Korotsko

Russia / Novgorod Oblast     57°56′13″N   33°14′53″E
temp.,
°C
wind,
m/s
gust,
m/s
humid.,
%
clouds,
%
prec.,
mm/h
press.,
hPa
HPBL,
m
6 march, sat
sat600:00−9w259321 0.0 1015118
03:00−8wnw389553 0.2 1017449
06:00−9wnw2697100 0.2 1016292
09:00−9wnw3692100 0.3 1017397
12:00−6w3681100 0.1 1016739
15:00−4wsw4769100 0.1 10141138
18:00−5sw4107354 0.0 1011877
21:00−6sw6149077 0.1 1006967
7 march, sun
sun700:00−4sw71592100 1.5 9991165
03:00−3wsw71594100 3.8 9941190
06:00−2sw61395100 2.8 9901064
09:00−5nw51093100 6.8 989786
12:00−5wnw71365100 1.0 9901735
15:00−5w597158 1.1 9921342
18:00−6w398067 0.4 992905
21:00−10nw229582 0.4 99347
8 march, mon
mon800:00−11nnw3992100 0.0 995277
03:00−11wnw5119478 0.1 997603
06:00−9nnw51093100 0.8 1000870
09:00−11nnw51090100 1.1 1003673
12:00−10nnw4786100 0.1 1006698
15:00−9nnw4786100 0.2 1009722
18:00−11nnw4890100 0.1 1011587
21:00−15nnw389798 0.1 1014267
9 march, tue
tue900:00−18nnw239998 0.0 101679
03:00−20nw239996 0.1 101775
06:00−22nnw229816 0.0 101963
09:00−20nnw23938 0.0 1021178
12:00−14nw24793 0.0 1021511
15:00−11nw23717 0.0 1021864
18:00−14n128698 0.0 102120
21:00−17e239080 0.0 102255
10 march, wed
wed1000:00−19e38920 0.0 1022187
03:00−20ese38920 0.0 1023196
06:00−21ese35930 0.0 1024118
09:00−19e35860 0.0 1026180
12:00−13ese35760 0.0 1026412
15:00−11ese357120 0.0 1026689
18:00−13ese248634 0.0 102599
21:00−17se389153 0.0 1026171